Regional Weather Roundup
Issued by NWS Cleveland, OH

Home | Current Version | Previous Version | Graphics & Text | Print | Product List | Glossary On
Versions: 1 2 3 4 5 6 7 8 9 10 11 12 13 14 15 16 17 18 19 20 21 22 23 24 25 26 27 28 29 30 31 32 33 34 35 36 37 38 39 40 41 42 43 44 45 46 47 48 49 50
000
ASUS41 KCLE 221800
RWRCLE
OHIO REGIONAL WEATHER ROUNDUP
NATIONAL WEATHER SERVICE WILMINGTON, OH
200 PM EDT MON SEP 22 2014

NOTE: "FAIR" INDICATES FEW OR NO CLOUDS BELOW 12,000 FEET WITH NO
SIGNIFICANT WEATHER AND/OR OBSTRUCTIONS TO VISIBILITY.

OHZ001>008-015>018-024>027-034-035-043-044-221900-
   NORTHWEST OHIO

CITY           SKY/WX    TMP DP  RH WIND       PRES   REMARKS
DEFIANCE       SUNNY    N/A N/A N/A N9        30.24S
FINDLAY        SUNNY     61  39  44 NW9       30.22S
TOLEDO EXPRESS SUNNY     59  40  49 W5        30.22S
TOLEDO METCALF SUNNY     59  41  51 NW9       30.23F
LIMA           SUNNY     59  41  51 NW8       30.23F
$$

OHZ009>014-019>023-028>033-038-089-221900-
   NORTHEAST OHIO

CITY           SKY/WX    TMP DP  RH WIND       PRES   REMARKS
CLE-HOPKINS    CLOUDY    54  41  61 W10       30.23S
CLE-LAKEFRONT  CLOUDY    54  42  64 W12G17    30.20S
CUY CO. ARPT   CLOUDY    54  45  71 NW16      30.21R
LORAIN-ELYRIA  PTSUNNY   57  41  55 NW9       30.22F
ASHTABULA      CLOUDY    53  44  71 W12       30.18S
AKRON-CANTON   CLOUDY    56  41  57 NW10      30.19S
WOOSTER        NOT AVBL
MANSFIELD      PTSUNNY   54  39  57 NW6       30.22S
YOUNGSTOWN     CLOUDY    54  42  64 N10       30.18R
$$

OHZ042-051>053-060>062-070>072-077>081-221900-
  SOUTHWEST OHIO

CITY           SKY/WX    TMP DP  RH WIND       PRES   REMARKS
CINC-COVINGTON SUNNY     60  42  51 N8        30.24F
CINC-LUNKEN    SUNNY     62  43  49 N6        30.24F
HAMILTON       SUNNY     60  43  53 MISG      30.25F
DAYTON         NOT AVBL
WRIGHT-PAT AFB SUNNY     60  40  48 W5        30.23F
DAYTON GENERAL SUNNY     58  43  57 CALM      30.22F
WILMINGTON     SUNNY     60  39  45 CALM      30.22F
$$

OHZ036-037-039>041-045>050-054>059-063>069-073>076-082>088-221900-
  CENTRAL AND SOUTHEAST OHIO

CITY           SKY/WX    TMP DP  RH WIND       PRES   REMARKS
COLUMBUS       MOSUNNY   61  39  44 NW6       30.21F
OSU AIRPORT    SUNNY     58  37  45 VRB5      30.21F
BOLTON FIELD   SUNNY     59  41  51 N5        30.22F
RICKENBACK AFB NOT AVBL
NEWARK         PTSUNNY   57  40  52 NW6       30.21F
MARION         SUNNY     57  38  48 NW7       30.23S
LANCASTER      SUNNY     61  41  47 NW7       30.22F
ZANESVILLE     CLOUDY    58  41  53 NW9       30.20F
NEW PHILLY     CLOUDY    57  40  52 NW6       30.21S
$$



USA.gov is the U.S. government's official web portal to all federal, state and local government web resources and services.